Location: Misciano
(43.5000°N, 11.9500°E)
Time: 16:21:14
(UTC+00:00)

Cosmos 2016 Rocket - Pass Details

Date: 13 August 2020
Orbit: 946 x 1001 km, 83.0° (Epoch: 18 September)

Event Time Altitude Azimuth Distance (km) Brightness Sun altitude
Exits shadow 21:13:30 60° 138° (SE) 1,129 3.9 -25.7°
Maximum altitude 21:14:23 68° 94° (E) 1,070 4.0 -25.8°
Drops below altitude 10° 21:20:44 10° 13° (NNE) 2,781 6.9 -26.4°
Sets 21:23:17 0° 11° (N) 3,736 7.7 -26.6°
